This demonstration page uses our WeatherBlox Daily Observations layout. Learn more.

Left ArrowRight Arrow

39.12711, -84.51439

Hourly Observations for July 22, 2021

Temp ( °F °C ) Dew Point ( °F °C ) Humidity (%) Winds ( mph kmh ) Pressure ( in mb ) Visibility ( mi km ) Precip ( " mm )
12:53 am 00:53 Clear 65 18.3 62 16.7 90 90 N N/A 30.16 1022 8 13 N/A
1:53 am 01:53 Clear 63 17.2 61 16.1 93 93 N N/A 30.17 1022 7 11 N/A
2:53 am 02:53 Clear with Mist and Fog 62 16.7 60 15.6 93 93 N N/A 30.17 1022 6 10 N/A
3:53 am 03:53 Clear with Mist and Fog 60 15.6 59 15 96 96 N N/A 30.18 1022 5 8 N/A
4:49 am 04:49 Clear with Mist and Fog 59 15 57 14 94 94 N N/A 30.19 1022 1 2 N/A
4:53 am 04:53 Clear with Mist and Fog 59 15 58 14.4 96 96 N N/A 30.18 1022 1 1 N/A
5:00 am 05:00 Clear with Mist and Fog 60 15.6 59 15 96 96 N N/A 30.19 1022 1 2 N/A
5:05 am 05:05 Clear with Mist and Fog 60 15.6 59 15 96 96 N N/A 30.20 1023 3 5 N/A
5:53 am 05:53 Clear with Mist and Fog 59 15 58 14.4 96 96 N N/A 30.19 1022 5 8 N/A
6:03 am 06:03 Clear with Mist and Fog 59 15 58 14.4 96 96 N N/A 30.20 1023 2 3 N/A
6:12 am 06:12 Clear with Fog 58 14.4 58 14.4 100 100 N N/A 30.21 1023 1 1 N/A
6:23 am 06:23 Clear with Mist and Fog 58 14.4 57 13.9 97 97 N N/A 30.21 1023 2 3 N/A
6:31 am 06:31 Sunny with Mist and Fog 59 15 58 14.4 96 96 N N/A 30.21 1023 1 1 N/A
6:53 am 06:53 Sunny with Fog 59 15 58 14.4 96 96 N N/A 30.21 1023 7 11 N/A
7:53 am 07:53 Sunny 62 16.7 60 15.6 93 93 NE 3 6 30.21 1023 7 11 N/A
8:53 am 08:53 Sunny 67 19.4 61 16.1 81 81 NE 3 6 30.23 1024 9 14 N/A
9:53 am 09:53 Sunny 71 21.7 61 16.1 71 71 NNE 5 7 30.23 1024 10 16 N/A
10:53 am 10:53 Sunny 74 23.3 57 13.9 56 56 E 6 9 30.23 1024 10 16 N/A
11:53 am 11:53 Sunny 76 24.4 57 13.9 52 52 N N/A 30.23 1024 10 16 N/A
12:53 pm 12:53 Sunny 78 25.6 59 15 52 52 NE 7 11 30.22 1023 10 16 N/A
1:53 pm 13:53 Sunny 80 26.7 58 14.4 47 47 NE 7 11 30.20 1023 10 16 N/A
2:53 pm 14:53 Sunny 79 26.1 57 13.9 47 47 ESE 7 11 30.19 1022 10 16 N/A
3:53 pm 15:53 Hazy 81 27.2 57 13.9 44 44 ENE 6 9 30.18 1022 6 10 N/A
4:53 pm 16:53 Sunny 81 27.2 58 14.4 45 45 ENE 7 11 30.17 1022 10 16 N/A
5:53 pm 17:53 Sunny 81 27.2 59 15 47 47 ENE 5 7 30.17 1022 10 16 N/A
6:53 pm 18:53 Sunny 79 26.1 59 15 50 50 ENE 7 11 30.18 1022 10 16 N/A
7:53 pm 19:53 Sunny 77 25 60 15.6 56 56 E 5 7 30.17 1022 10 16 N/A
8:53 pm 20:53 Sunny 71 21.7 62 16.7 73 73 N N/A 30.18 1022 10 16 N/A
9:53 pm 21:53 Clear 68 20 61 16.1 78 78 N N/A 30.19 1022 10 16 N/A
10:53 pm 22:53 Clear 66 18.9 61 16.1 84 84 N N/A 30.20 1023 10 16 N/A
11:53 pm 23:53 Clear 65 18.3 61 16.1 87 87 N N/A 30.19 1022 10 16 N/A

Powered by AerisWeather